Total_Precipitation_Accumulation
0.79 0.73 0.62 0.65 0.60 0.64 0.70 0.76 0.79 0.82 0.91 0.86 0.82 0.84 0.87 0.83 0.76 0.74 0.90 1.13 1.55 1.81 1.71 1.56 1.37 1.39 1.42 1.34 1.39 1.56 1.72 1.79 1.73 1.74 1.84 1.95 1.83 1.68 1.59 1.46 1.48 1.44 1.32
0.72 0.76 0.72 0.73 0.74 0.71 0.71 0.72 0.71 0.85 0.92 0.92 0.89 0.89 0.88 0.77 0.76 0.85 1.00 1.06 1.09 1.38 1.84 1.90 1.76 1.66 1.60 1.44 1.38 1.51 1.62 1.64 1.58 1.64 1.71 1.75 1.67 1.47 1.35 1.43 1.60 1.41 1.19
0.69 0.74 0.78 0.79 0.81 0.81 0.80 0.83 0.84 0.92 0.93 0.97 0.99 0.90 0.85 0.79 0.78 0.85 0.93 1.00 0.82 0.83 1.24 1.72 1.91 1.82 1.81 1.70 1.49 1.51 1.55 1.65 1.52 1.62 1.67 1.67 1.51 1.39 1.26 1.41 1.56 1.43 1.23
0.71 0.80 0.83 0.87 0.93 0.85 0.82 0.90 0.97 1.05 1.04 1.10 1.13 0.97 0.80 0.87 0.84 0.85 0.97 0.99 0.92 0.80 0.89 1.07 1.31 1.49 1.82 1.99 1.80 1.72 1.65 1.57 1.44 1.56 1.62 1.54 1.40 1.35 1.27 1.40 1.42 1.40 1.36
0.89 0.97 1.02 1.05 1.07 1.08 1.01 0.92 0.96 1.07 1.18 1.22 1.10 1.01 0.89 0.88 0.92 0.91 1.09 1.08 0.98 0.88 0.94 0.90 0.93 1.04 1.32 1.73 1.88 1.92 1.74 1.52 1.39 1.45 1.47 1.34 1.33 1.30 1.19 1.26 1.32 1.28 1.29
1.17 1.28 1.26 1.21 1.28 1.38 1.42 1.22 1.27 1.23 1.20 1.30 1.15 1.07 1.04 0.99 1.00 1.05 1.10 1.15 1.16 1.02 1.07 1.04 0.96 0.78 0.92 1.23 1.53 1.85 1.91 1.75 1.55 1.50 1.55 1.32 1.24 1.26 1.10 1.07 1.16 1.22 1.19
1.51 1.67 1.65 1.63 1.64 1.64 1.61 1.56 1.71 1.65 1.39 1.31 1.49 1.46 1.32 1.16 1.11 1.09 1.10 1.22 1.31 1.29 1.35 1.31 1.19 1.00 0.86 0.82 0.95 1.46 1.80 1.95 1.90 1.72 1.77 1.63 1.31 1.19 1.13 1.09 1.11 1.17 1.22
1.73 1.77 1.98 2.09 2.07 2.18 2.16 1.98 2.13 2.14 1.78 1.54 1.79 2.08 1.80 1.59 1.21 1.09 1.15 1.17 1.26 1.40 1.47 1.39 1.25 1.13 1.07 0.99 0.77 0.94 1.23 1.71 1.98 1.84 1.97 2.03 1.56 1.26 1.12 1.10 1.13 1.20 1.32
1.89 1.91 2.02 2.20 2.22 2.29 2.40 2.47 2.42 2.52 2.33 1.94 1.81 2.09 1.99 1.84 1.64 1.26 1.18 1.27 1.39 1.47 1.52 1.52 1.40 1.18 1.15 1.16 0.93 0.76 0.86 1.06 1.54 1.80 1.99 2.26 1.89 1.42 1.16 1.12 1.14 1.14 1.27
2.08 2.15 2.18 2.29 2.32 2.34 2.44 2.54 2.52 2.66 2.73 2.34 2.04 1.84 1.67 1.67 1.79 1.56 1.32 1.29 1.45 1.49 1.50 1.54 1.58 1.44 1.27 1.27 1.12 0.88 0.86 0.91 1.17 1.68 1.99 2.28 2.19 1.71 1.32 1.24 1.25 1.16 1.21
2.18 2.22 2.29 2.45 2.45 2.43 2.41 2.62 2.67 2.76 2.69 2.61 2.47 2.31 2.14 1.89 1.54 1.62 1.66 1.52 1.43 1.34 1.41 1.53 1.68 1.63 1.48 1.41 1.45 1.11 0.87 0.85 0.94 1.45 1.84 2.29 2.39 2.06 1.77 1.62 1.49 1.40 1.25
2.22 2.12 2.04 2.18 2.25 2.29 2.28 2.46 2.64 2.77 2.75 2.78 2.71 2.42 2.37 2.23 1.87 1.80 1.68 1.58 1.59 1.41 1.34 1.42 1.47 1.46 1.48 1.45 1.37 1.33 1.04 0.89 0.90 1.18 1.56 1.92 2.38 2.34 2.22 2.13 1.90 1.77 1.60
2.05 2.09 1.97 1.96 1.99 1.95 1.99 2.12 2.19 2.26 2.40 2.57 2.48 2.28 2.24 2.08 2.04 2.05 1.95 1.73 1.57 1.35 1.37 1.35 1.33 1.31 1.28 1.32 1.40 1.49 1.14 0.92 0.88 0.99 1.28 1.54 1.90 2.22 2.37 2.29 2.14 2.09 2.03
1.73 1.82 1.82 1.76 1.80 1.84 1.86 1.94 1.96 1.97 2.00 2.08 2.08 2.17 2.23 2.10 2.01 1.95 1.98 2.14 1.90 1.65 1.49 1.35 1.34 1.34 1.27 1.25 1.42 1.50 1.18 1.02 0.88 0.84 0.95 1.20 1.50 1.88 2.11 2.15 2.20 2.28 2.25
1.29 1.36 1.45 1.52 1.62 1.67 1.73 1.87 1.94 1.94 1.91 1.89 1.98 2.06 2.02 2.00 1.97 1.86 1.84 1.99 2.08 1.92 1.77 1.59 1.46 1.38 1.37 1.30 1.41 1.26 1.20 1.13 0.94 0.86 0.84 0.86 1.03 1.35 1.56 1.77 1.95 1.94 2.02
0.95 1.01 1.12 1.28 1.51 1.64 1.68 1.75 1.80 1.88 1.92 1.89 1.98 2.09 2.11 2.10 2.12 2.04 1.91 1.90 1.86 1.89 1.80 1.58 1.40 1.31 1.44 1.31 1.42 1.24 1.19 1.34 1.11 0.94 0.89 0.86 0.85 0.91 1.04 1.24 1.44 1.54 1.54
0.81 0.92 0.96 1.10 1.26 1.44 1.63 1.78 1.79 1.79 1.83 1.82 1.77 1.88 2.00 2.09 2.21 2.23 2.21 2.09 1.94 1.89 1.80 1.64 1.44 1.32 1.46 1.51 1.45 1.39 1.28 1.21 1.17 1.08 0.99 0.97 0.91 0.80 0.87 0.97 1.13 1.28 1.31
0.64 0.73 0.86 1.06 1.17 1.25 1.30 1.39 1.48 1.52 1.56 1.61 1.61 1.58 1.66 1.77 1.93 2.08 2.16 2.10 2.08 1.98 1.88 1.86 1.68 1.42 1.33 1.42 1.48 1.57 1.49 1.27 1.22 1.27 1.19 1.09 1.03 0.88 0.79 0.82 0.92 1.00 1.04
0.65 0.68 0.81 0.96 1.02 1.07 1.11 1.13 1.23 1.33 1.34 1.32 1.38 1.36 1.38 1.46 1.61 1.75 1.84 1.91 2.01 2.05 2.05 1.96 1.87 1.69 1.45 1.46 1.53 1.57 1.61 1.68 1.43 1.33 1.32 1.27 1.18 1.08 1.00 0.91 0.89 0.91 0.88
0.68 0.72 0.87 0.95 0.96 0.92 1.01 1.04 1.10 1.14 1.11 1.06 1.09 1.10 1.15 1.20 1.28 1.41 1.56 1.77 1.96 2.06 2.13 2.12 2.02 1.80 1.64 1.60 1.57 1.59 1.68 1.76 1.74 1.51 1.39 1.31 1.34 1.29 1.15 1.06 0.98 0.96 0.95
0.70 0.74 0.80 0.89 0.93 0.90 0.94 1.00 1.00 0.94 0.94 0.93 0.89 0.80 0.81 0.89 0.91 1.00 1.04 1.33 1.59 1.81 1.95 2.02 2.00 1.86 1.65 1.54 1.41 1.45 1.60 1.76 1.85 1.80 1.71 1.43 1.35 1.31 1.25 1.20 1.11 1.04 1.00
0.59 0.63 0.67 0.82 0.93 0.83 0.94 0.94 0.87 0.79 0.77 0.81 0.78 0.71 0.69 0.72 0.64 0.61 0.66 0.88 1.18 1.39 1.57 1.75 1.81 1.70 1.56 1.47 1.52 1.52 1.52 1.58 1.62 1.55 1.55 1.56 1.48 1.38 1.30 1.24 1.24 1.22 1.15
0.51 0.56 0.60 0.75 0.84 0.92 0.86 0.72 0.75 0.75 0.76 0.78 0.80 0.83 0.75 0.70 0.77 0.69 0.63 0.70 0.79 0.91 1.07 1.34 1.57 1.56 1.65 1.57 1.48 1.43 1.44 1.48 1.49 1.54 1.55 1.56 1.46 1.36 1.24 1.19 1.33 1.26 1.27
0.48 0.53 0.58 0.61 0.68 0.82 0.76 0.61 0.65 0.64 0.75 0.83 0.86 0.94 0.95 0.88 0.87 0.94 0.89 0.89 0.87 0.80 0.86 0.79 1.00 1.38 1.52 1.58 1.53 1.56 1.65 1.58 1.46 1.49 1.52 1.54 1.46 1.34 1.20 1.11 1.20 1.12 1.07
0.52 0.54 0.57 0.59 0.65 0.69 0.67 0.60 0.63 0.69 0.82 0.84 0.79 0.91 0.95 0.90 0.94 1.00 1.12 1.18 1.10 0.95 1.06 1.07 0.99 1.09 1.23 1.29 1.41 1.51 1.57 1.50 1.46 1.38 1.28 1.25 1.21 1.23 1.28 1.19 1.15 1.18 1.09
0.50 0.52 0.51 0.49 0.54 0.56 0.61 0.52 0.64 0.75 0.80 0.81 0.82 0.88 1.02 0.95 0.93 0.90 0.99 1.13 1.12 0.99 0.87 0.90 0.87 0.77 0.71 0.82 1.02 1.19 1.48 1.59 1.54 1.44 1.24 1.17 1.19 1.18 1.23 1.16 1.06 1.08 1.06